This is the latest recevied weather packets stored in our database for station/object W6MAF. If no packets are shown the sender has not sent any weather packets the latest 10 day(s).
| Time | Temp. | Humidity | Pressure | Rain* | Wind** | Luminosity | Snow |
|---|---|---|---|---|---|---|---|
| 1788276886 | 20° C | 14% | - | 0 mm | 0 m/s | - | - |
| 1788276589 | 19.44° C | 13% | - | 0 mm | 4.02 m/s, 172° | - | - |
| 1788276292 | 19.44° C | 14% | - | 0 mm | 0.45 m/s, 153° | - | - |
| 1788275990 | 19.44° C | 14% | - | 0 mm | 4.47 m/s, 183° | - | - |
| 1788275692 | 19.44° C | 13% | - | 0 mm | 4.47 m/s, 195° | - | - |
| 1788275395 | 19.44° C | 13% | - | 0 mm | 0 m/s | - | - |
| 1788275097 | 18.89° C | 14% | - | 0 mm | 0 m/s | - | - |
| 1788274799 | 18.89° C | 15% | - | 0 mm | 3.13 m/s, 195° | - | - |
| 1788274502 | 18.89° C | 15% | - | 0 mm | 0 m/s | - | - |
| 1788274201 | 18.33° C | 16% | - | 0 mm | 0 m/s | - | - |
| 1788273904 | 18.33° C | 16% | - | 0 mm | 2.68 m/s, 190° | - | - |
| 1788273606 | 18.33° C | 17% | - | 0 mm | 5.81 m/s, 180° | - | - |
| 1788273326 | 17.78° C | 17% | - | 0 mm | 3.58 m/s, 179° | - | - |
| 1788273010 | 17.78° C | 19% | - | 0 mm | 0 m/s | - | - |
| 1788272712 | 17.78° C | 20% | - | 0 mm | 4.92 m/s, 191° | - | - |
| 1788272113 | 17.22° C | 22% | - | 0 mm | 4.02 m/s, 181° | - | - |
| 1788271816 | 17.22° C | 23% | - | 0 mm | 3.58 m/s, 187° | - | - |
| 1788271518 | 16.67° C | 22% | - | 0 mm | 5.36 m/s, 181° | - | - |
| 1788271220 | 16.67° C | 23% | - | 0 mm | 3.58 m/s, 195° | - | - |
| 1788270923 | 16.11° C | 24% | - | 0 mm | 4.02 m/s, 190° | - | - |
| 1788270622 | 16.11° C | 25% | - | 0 mm | 4.02 m/s, 191° | - | - |
| 1788270324 | 15.56° C | 27% | - | 0 mm | 4.92 m/s, 193° | - | - |
| 1788270026 | 15.56° C | 29% | - | 0 mm | 5.81 m/s, 186° | - | - |
| 1788269729 | 15° C | 33% | - | 0 mm | 6.26 m/s, 203° | - | - |
| 1788269431 | 15° C | 34% | - | 0 mm | 7.15 m/s, 198° | - | - |
* Rain latest hour (hover to see other rain measurements)
** Current wind speed in m/s (hover to see current wind gust speed)